[[{"header":{"parameterUnit":"m.s-1","parameterCategory":1,"la1":30.2991,"la2":30.254,"lo1":-89.0895,"lo2":-89.0444,"dy":0.0017,"dx":0.0017,"nx":28,"ny":28,"refTime":"2025-04-18T03:00:00:Z","depth":0,"parameterNumber":2,"parameterNumberName":"U-component_of_WINDS"},"data":[0,0,0,0,0,0,0,0,0,0,0,0,0,0,0,0,0,0,0,0,0,0,0,0,0,0,0,0,0,0,0,0,0,0,0,0,0,0,0,0,0,0,0,0,0,0,0,0,0,0,0,0,0,0,0,0,0,0,-4.9128,-4.9129,0,-4.9234,-4.9235,-4.9236,-4.9207,-4.9205,-4.9203,-4.9201,-4.9307,-4.9312,-4.9317,0,0,0,0,0,0,0,0,0,0,0,0,0,-4.8898,-4.8903,-4.9128,-4.9129,-4.913,-4.9234,-4.9235,-4.9237,-4.9208,-4.9205,-4.9202,-4.92,-4.9306,-4.9311,-4.9317,0,0,0,0,0,0,0,0,0,0,0,0,0,-4.9,-4.8904,-4.9128,-4.9128,-4.913,-4.9234,-4.9235,-4.9237,-4.9208,-4.9205,-4.9202,-4.9199,-4.9304,-4.9311,-4.9318,-4.9427,0,0,-4.934,-4.9343,0,0,0,0,0,0,0,0,-4.8995,-4.9009,-4.9127,-4.9129,-4.913,-4.9204,-4.9193,-4.9301,-4.9209,-4.9178,-4.9201,-4.9197,-4.9275,-4.9285,-4.9312,-4.9432,-4.9436,-4.9341,-4.9345,-4.9348,-4.935,0,0,0,0,0,0,0,-4.8988,-4.9004,-4.917,-4.9129,-4.9131,-4.9123,-4.9134,-4.9214,-4.9243,-4.9181,-4.9179,-4.9192,-4.9276,-4.9305,-4.9314,-4.9438,-4.9341,-4.9347,-4.9351,-4.9354,-4.9652,-4.9656,0,0,0,0,0,0,-4.898,-4.8998,-4.9166,-4.9173,-4.9053,-4.913,-4.9142,-4.9184,-4.9243,-4.9248,-4.9195,-4.919,-4.9294,-4.9306,-4.9318,-4.9448,-4.9348,-4.9355,-4.9359,-4.9649,-4.9653,-4.9657,0,0,0,0,0,0,-4.8975,-4.8995,-4.9162,-4.9085,-4.9106,-4.9137,-4.9184,-4.9187,-4.9216,-4.9253,-4.9258,-4.9219,-4.9292,-4.9307,-4.94,-4.9451,-4.9358,-4.9365,-4.9645,-4.965,-4.9655,-4.9711,0,0,0,0,0,0,-4.8968,-4.8993,-4.9035,-4.9087,-4.911,-4.9243,-4.9187,-4.9192,-4.9229,-4.9225,-4.9277,-4.9283,-4.9291,-4.9389,-4.9407,-4.946,-4.937,-4.964,-4.9647,-4.9653,-4.9704,-4.9717,-4.9728,0,0,0,0,0,-4.896,-4.9046,-4.9038,-4.9058,-4.9163,-4.9246,-4.926,-4.9268,-4.9234,-4.9276,-4.9299,-4.9281,-4.9444,-4.9399,-4.9419,-4.9474,-4.9637,-4.9645,-4.9653,-4.9699,-4.9715,-4.9728,0,0,0,0,0,0,-4.8999,-4.9053,-4.9044,-4.9149,-4.9194,-4.9241,-4.9294,-4.9284,-4.9338,-4.9332,-4.9339,-4.9351,-4.9445,-4.9469,-4.9419,-4.9583,-4.9535,-4.9547,-4.9563,-4.9578,-4.959,-4.9582,-4.9376,0,0,0,0,0,-4.902,-4.9084,-4.9127,-4.9216,-4.9239,-4.9263,-4.9299,-4.9302,-4.9348,-4.9366,-4.9396,-4.9441,-4.9502,-4.9542,-4.96,-4.9708,-4.9719,-4.9756,-4.9768,-4.9778,-4.9788,-4.9846,-4.9863,-4.9683,-4.9683,-4.9683,0,0,-4.9064,-4.9101,-4.914,-4.9225,-4.9259,-4.9324,-4.9279,-4.9349,-4.9397,-4.9376,-4.9465,-4.949,-4.954,-4.9641,-4.9687,-4.9664,-4.984,-4.9788,-4.9796,-4.9801,-4.9856,-4.9873,-4.9889,-4.9689,-4.9688,-4.9687,0,0,-4.9176,-4.9211,-4.9289,-4.9325,-4.9378,-4.9394,-4.9413,-4.9463,-4.9478,-4.9568,-4.9554,-4.9611,-4.9716,-4.9752,-4.9785,-4.9912,-4.9897,-4.9931,-4.9993,-5.005,-5.0064,-5.0077,-5.0121,-5.0137,-4.9942,-4.9942,-4.9942,0,-4.9223,-4.9321,-4.933,-4.9402,-4.9439,-4.9424,-4.9502,-4.9537,-4.9606,-4.9632,-4.9606,-4.9738,-4.9771,-4.9879,-4.9911,-4.9938,-4.9959,-4.9924,-5.0062,-5.0074,-5.0086,-5.0128,-5.0145,-4.9945,-4.9945,-4.9945,-4.9944,0,-4.9376,-4.9444,-4.95,-4.9568,-4.9612,-4.9687,-4.9706,-4.9749,-4.9749,-4.9767,-4.9859,-4.9898,-4.9964,-4.999,-4.999,-5.0099,-5.0083,-5.006,-5.0011,-5.0107,-5.0147,-5.0163,-4.9951,-4.9949,-4.9948,-4.9947,0,0,-4.9513,-4.9587,-4.9607,-4.9638,-4.9697,-4.9749,-4.9823,-4.9889,-4.9925,-4.9974,-5.0036,-5.0126,-5.0104,-5.0141,-5.0145,-5.0195,-5.0293,-5.0165,-5.0166,-5.0186,-5.0414,-5.0431,-5.0449,-5.0284,-5.0287,-5.029,-5.041,0,-4.963,-4.9761,-4.9771,-4.9889,-4.9952,-4.994,-5.0004,-5.0047,-5.0067,-5.0122,-5.0144,-5.0207,-5.0175,-5.0197,-5.0246,-5.027,-5.0338,-5.0262,-5.034,-5.0343,-5.0326,-5.047,-5.0488,-5.0599,-5.0425,-5.0428,-5.043,0,-4.9782,-4.9837,-4.9961,-5.0011,-5.0038,-5.0096,-5.0156,-5.021,-5.0258,-5.0269,-5.0311,-5.0308,-5.0384,-5.0335,-5.0439,-5.0386,-5.0419,-5.0436,-5.0441,-5.0447,-5.0391,-5.0479,-5.0635,-5.0651,-5.0455,-5.0453,-5.0451,0,-4.9869,-4.9973,-5.0061,-5.0088,-5.0149,-5.019,-5.0217,-5.0262,-5.0301,-5.0354,-5.0379,-5.044,-5.0473,-5.052,-5.0534,-5.0497,-5.0637,-5.0589,-5.0647,-5.0647,-5.0675,-5.0673,-5.0837,-5.07,-5.07,-5.0699,-5.0699,0,-4.9997,-5.0073,-5.01,-5.0154,-5.0239,-5.0251,-5.0334,-5.0359,-5.04,-5.0457,-5.0451,-5.0505,-5.0521,-5.0578,-5.0589,-5.0673,-5.0688,-5.0699,-5.07,-5.0698,-5.0697,-5.0718,-5.071,-5.0704,-5.0703,-5.0702,-5.0701,0,-5.0106,-5.0128,-5.0223,-5.0274,-5.0288,-5.0348,-5.0391,-5.0443,-5.0462,-5.0535,-5.0553,-5.0583,-5.065,-5.0669,-5.0749,-5.0757,-5.0855,-5.085,-5.0839,-5.0838,-5.0894,-5.0888,-5.1077,-5.1101,-5.0949,-5.0951,-5.0952,0,-5.0186,-5.0244,-5.0301,-5.034,-5.0369,-5.0432,-5.0471,-5.0485,-5.0527,-5.0587,-5.0631,-5.0697,-5.075,-5.0858,-5.0886,-5.0948,-5.0944,-5.1006,-5.0952,-5.0948,-5.0943,-5.0938,-5.0944,-5.1015,-5.1016,-5.1018,-5.1019,0,-5.0324,-5.0332,-5.039,-5.0452,-5.0499,-5.0549,-5.0596,-5.0628,-5.0649,-5.0696,-5.0764,-5.0806,-5.0888,-5.0954,-5.1016,-5.1043,-5.1034,-5.1036,-5.1052,-5.1049,-5.104,-5.1044,-5.0864,-5.1031,-5.1029,-5.1029,-5.1028,-5.1027,-5.042,-5.0471,-5.0519,-5.0584,-5.0621,-5.0666,-5.0716,-5.0743,-5.0801,-5.0869,-5.0874,-5.0948,-5.0995,-5.1078,-5.1109,-5.1166,-5.1148,-5.1172,-5.1178,-5.1183,-5.1187,-5.1032,-5.1178,-5.1178,-5.1177,-5.1177,-5.1177,0,-5.0556,-5.0587,-5.0646,-5.0713,-5.0764,-5.0753,-5.0805,-5.0848,-5.0913,-5.0958,-5.1011,-5.109,-5.1154,-5.1188,-5.1252,-5.1291,-5.1289,-5.1307,-5.1303,-5.131,-5.1201,-5.1179,-5.1308,-5.1308,-5.1308,-5.1308,-5.1308,-5.1308,-5.0633,-5.0719,-5.0733,-5.0837,-5.0867,-5.094,-5.0971,-5.1012,-5.1047,-5.1136,-5.1189,-5.1212,-5.1252,-5.1319,-5.1376,-5.1385,-5.1408,-5.1428,-5.1434,-5.1331,-5.1318,-5.1305,-5.1285,-5.1433,-5.1434,-5.1538,-5.1539,-5.154]},{"header":{"parameterUnit":"m.s-1","parameterCategory":1,"la1":30.2991,"la2":30.254,"lo1":-89.0895,"lo2":-89.0444,"dy":0.0017,"dx":0.0017,"nx":28,"ny":28,"refTime":"2025-04-18T03:00:00:Z","depth":0,"parameterNumber":3,"parameterNumberName":"V-component_of_WINDS"},"data":[0,0,0,0,0,0,0,0,0,0,0,0,0,0,0,0,0,0,0,0,0,0,0,0,0,0,0,0,0,0,0,0,0,0,0,0,0,0,0,0,0,0,0,0,0,0,0,0,0,0,0,0,0,0,0,0,0,0,4.1446,4.1446,0,4.147,4.1471,4.1471,4.1434,4.1433,4.1431,4.143,4.1452,4.1454,4.1455,0,0,0,0,0,0,0,0,0,0,0,0,0,4.1365,4.1367,4.1446,4.1446,4.1447,4.147,4.1471,4.1471,4.1434,4.1432,4.1431,4.1429,4.1451,4.1453,4.1455,0,0,0,0,0,0,0,0,0,0,0,0,0,4.1396,4.1368,4.1446,4.1431,4.143,4.147,4.1471,4.1471,4.1434,4.1432,4.1431,4.1429,4.1451,4.1453,4.1456,4.1511,0,0,4.1464,4.1465,0,0,0,0,0,0,0,0,4.1394,4.1399,4.1433,4.1432,4.1431,4.1447,4.145,4.1484,4.1435,4.1433,4.143,4.1428,4.1452,4.1454,4.1463,4.1512,4.1513,4.1464,4.1466,4.1467,4.1468,0,0,0,0,0,0,0,4.1392,4.1398,4.1456,4.1434,4.1432,4.1423,4.1425,4.1456,4.1452,4.1433,4.143,4.1434,4.1451,4.146,4.1463,4.1513,4.1464,4.1466,4.1468,4.1469,4.1609,4.1611,0,0,0,0,0,0,4.1392,4.1396,4.1455,4.1456,4.1408,4.1426,4.1428,4.1444,4.1452,4.1452,4.1435,4.1432,4.1457,4.146,4.1464,4.1529,4.1467,4.1469,4.1471,4.1607,4.1609,4.1612,0,0,0,0,0,0,4.1391,4.1398,4.1454,4.1426,4.1432,4.1429,4.1447,4.1445,4.1455,4.1454,4.1453,4.1446,4.1455,4.146,4.15,4.1529,4.1471,4.1473,4.1604,4.1607,4.161,4.166,0,0,0,0,0,0,4.1389,4.1398,4.1419,4.1426,4.1434,4.149,4.1449,4.1447,4.146,4.1456,4.1464,4.1463,4.1454,4.1496,4.1502,4.1532,4.1475,4.1601,4.1606,4.1609,4.1656,4.1664,4.1672,0,0,0,0,0,4.1386,4.1431,4.142,4.1427,4.146,4.1492,4.1496,4.1486,4.1463,4.1484,4.1483,4.1463,4.1525,4.15,4.1507,4.1538,4.16,4.1604,4.1609,4.1652,4.1663,4.1672,0,0,0,0,0,0,4.1425,4.1432,4.142,4.1469,4.148,4.1486,4.1512,4.1497,4.1515,4.151,4.1495,4.1497,4.154,4.1543,4.1515,4.1592,4.1558,4.1565,4.1589,4.1599,4.1607,4.1605,4.1477,0,0,0,0,0,4.144,4.1466,4.147,4.1513,4.1519,4.1515,4.1528,4.1519,4.153,4.1535,4.1537,4.1548,4.157,4.1584,4.1604,4.1656,4.1657,4.168,4.1689,4.1695,4.1701,4.1729,4.174,4.1627,4.1627,4.1627,0,0,4.147,4.1477,4.1494,4.1521,4.1529,4.1556,4.1519,4.1549,4.1568,4.1539,4.1577,4.1579,4.159,4.1636,4.1657,4.164,4.1732,4.1701,4.1707,4.1709,4.1735,4.1746,4.1755,4.163,4.163,4.1629,0,0,4.1539,4.1547,4.1584,4.1593,4.1606,4.1603,4.1612,4.162,4.1621,4.1659,4.1638,4.166,4.1698,4.1707,4.1717,4.1791,4.1773,4.1797,4.184,4.1868,4.1876,4.1884,4.1911,4.1921,4.1803,4.1803,4.1803,0,4.1574,4.1615,4.1604,4.1636,4.1649,4.1625,4.1662,4.1671,4.1689,4.1698,4.1679,4.1727,4.1733,4.1781,4.18,4.1808,4.1818,4.1796,4.1876,4.1884,4.1891,4.1916,4.1926,4.1806,4.1806,4.1805,4.1805,0,4.1658,4.1687,4.1715,4.1735,4.1751,4.1785,4.1779,4.1796,4.1786,4.1785,4.1825,4.1831,4.1852,4.1863,4.1853,4.191,4.1899,4.1879,4.1845,4.1905,4.1928,4.1938,4.181,4.1809,4.1808,4.1808,0,0,4.1752,4.1767,4.1778,4.1787,4.18,4.1822,4.1855,4.1877,4.1892,4.1906,4.1933,4.1967,4.1948,4.1959,4.1949,4.1974,4.2033,4.195,4.195,4.1966,4.2097,4.2113,4.2124,4.2021,4.2023,4.2024,4.2096,0,4.1821,4.188,4.1872,4.1928,4.1955,4.1933,4.1962,4.1973,4.1973,4.1994,4.1993,4.2018,4.1991,4.1998,4.2021,4.2021,4.2059,4.2015,4.2046,4.2047,4.2044,4.2136,4.2153,4.2221,4.2105,4.2107,4.2108,0,4.191,4.1929,4.1988,4.1998,4.2009,4.2035,4.2056,4.2077,4.2089,4.2087,4.21,4.2086,4.2119,4.2085,4.213,4.2101,4.2113,4.2115,4.2117,4.2119,4.2081,4.2142,4.2242,4.2252,4.2122,4.2121,4.212,0,4.1973,4.2013,4.2054,4.2063,4.2075,4.2095,4.2101,4.2111,4.2125,4.2142,4.2151,4.2171,4.2183,4.2199,4.2191,4.2167,4.2238,4.2202,4.2237,4.2237,4.2253,4.2252,4.2357,4.226,4.226,4.226,4.226,0,4.2052,4.2089,4.2083,4.2109,4.215,4.214,4.218,4.2183,4.2193,4.2218,4.2199,4.2223,4.2211,4.2234,4.2228,4.2267,4.2271,4.2271,4.2269,4.2273,4.2273,4.2281,4.2276,4.2262,4.2262,4.2261,4.2261,0,4.213,4.2127,4.2171,4.218,4.2183,4.2213,4.222,4.2244,4.2242,4.2274,4.2281,4.2279,4.2305,4.2299,4.2327,4.2323,4.2372,4.2363,4.2368,4.2366,4.2401,4.2398,4.2515,4.253,4.2423,4.2424,4.2425,0,4.218,4.2209,4.2221,4.2238,4.2246,4.2271,4.2286,4.2277,4.2294,4.231,4.2331,4.2356,4.2375,4.2417,4.2418,4.2439,4.2432,4.2471,4.2435,4.2438,4.2433,4.2432,4.2434,4.2478,4.248,4.248,4.2481,0,4.227,4.2268,4.2291,4.2314,4.2333,4.235,4.2365,4.2379,4.2371,4.239,4.2417,4.2432,4.2461,4.2486,4.2506,4.2511,4.2495,4.2493,4.2502,4.2507,4.2508,4.2508,4.2388,4.249,4.2489,4.2489,4.2488,4.2488,4.2336,4.2361,4.2375,4.2401,4.2412,4.2427,4.2449,4.2452,4.2475,4.2499,4.2492,4.2523,4.2534,4.2559,4.2567,4.259,4.2576,4.2589,4.2592,4.2596,4.26,4.2505,4.2594,4.2594,4.2593,4.2593,4.2593,0,4.2426,4.2434,4.2458,4.2481,4.2502,4.2486,4.2502,4.2521,4.2548,4.2561,4.2581,4.2612,4.2636,4.2639,4.2661,4.268,4.2673,4.2686,4.2685,4.2686,4.2612,4.2602,4.2691,4.2691,4.2691,4.2691,4.2691,4.2691,4.2476,4.2517,4.2516,4.2563,4.257,4.2601,4.2612,4.2626,4.2636,4.2672,4.2692,4.2694,4.2703,4.2726,4.2747,4.2748,4.2757,4.2773,4.277,4.2701,4.2691,4.2682,4.2673,4.2775,4.2775,4.2842,4.2843,4.2843]}]]